Location: Brachstadt
(48.6975°N, 10.6755°E)
Time: 06:08:54
(UTC+00:00)

Iridium 4 Rocket - Pass Details

Date: 18 September 2020
Orbit: 585 x 904 km, 86.9° (Epoch: 22 October)

Event Time Altitude Azimuth Distance (km) Brightness Sun altitude
Rises 17:41:08 0° 170° (S) 3,062 6.4 -3.8°
Reaches altitude 10° 17:43:20 10° 166° (SSE) 2,196 5.7 -4.2°
Maximum altitude 17:48:09 60° 87° (E) 878 3.6 -5.0°
Drops below altitude 10° 17:53:29 10° 9° (N) 2,420 6.1 -5.8°
Sets 17:56:00 0° 6° (N) 3,403 6.9 -6.2°
